Location: ???? ?????
(30.0052°N, 31.2891°E)
Time: 21:18:52
(UTC+00:00)

Meteor 2-1 Rocket - Pass Details

Date: 26 May 2022
Orbit: 826 x 910 km, 81.3° (Epoch: 04 July)

Event Time Altitude Azimuth Distance (km) Brightness Sun altitude
Rises 01:05:29 0° 352° (N) 3,467 7.9 -20.9°
Reaches altitude 10° 01:07:57 10° 352° (N) 2,513 7.1 -20.5°
Maximum altitude 01:13:40 89° 268° (W) 857 4.1 -19.5°
Enters shadow 01:18:48 12° 174° (S) 2,284 6.1 -18.7°
